GW0194 Weather Reports


time (UTC)temp
F
wind
direction
speed
knots
gust
knots
rain 1hr
in
rain 24hr
in
rain mn
in
humidity
%
barometer
mb
20260504210030 64 20 9.6 15.6 0.00 0.00 0.00 39 1009.2
20260504204541 69 38 2.6 10.4 0.00 0.00 0.00 29 1009.0
20260504203029 67 96 2.6 10.4 0.00 0.00 0.00 34 1008.5
20260504201529 66 212 3.5 10.4 0.00 0.00 0.00 36 1008.7
20260504200034 67 242 3.5 9.6 0.00 0.00 0.00 31 1009.1
20260504194537 72 234 2.6 8.7 0.00 0.00 0.00 22 1008.7
20260504193031 73 236 1.7 7.0 0.00 0.00 0.00 22 1008.4
20260504191530 74 0 1.7 4.3 0.00 0.00 0.00 22 1008.3
20260504190035 73 350 0.9 4.3 0.00 0.00 0.00 22 1008.2
20260504184535 72 333 0.9 6.1 0.00 0.00 0.00 23 1008.5
20260504183032 73 220 0.9 3.5 0.00 0.00 0.00 22 1008.9
20260504181530 73 336 1.7 5.2 0.00 0.00 0.00 24 1008.8
20260504180032 72 248 1.7 7.0 0.00 0.00 0.00 25 1009.0
20260504174530 71 212 2.6 10.4 0.00 0.00 0.00 26 1009.2
20260504173029 71 348 2.6 8.7 0.00 0.00 0.00 26 1009.4
20260504171533 70 304 0.9 6.1 0.00 0.00 0.00 27 1009.7
20260504081543 44 237 0.0 0.9 0.00 0.00 0.00 54 1011.2
20260504044529 59 0 0.0 4.3 0.00 0.00 0.00 31 1011.5
20260504043039 60 0 0.0 3.5 0.00 0.00 0.00 31 1011.6
20260504041531 61 207 0.0 1.7 0.00 0.00 0.00 30 1011.7
20260504040030 61 208 0.9 6.1 0.00 0.00 0.00 29 1011.9
20260504034533 62 0 0.0 0.9 0.00 0.00 0.00 30 1012.0
20260504033031 62 0 0.0 2.6 0.00 0.00 0.00 28 1012.0
20260504031534 64 0 0.0 2.6 0.00 0.00 0.00 27 1012.0
20260504030031 64 0 0.0 4.3 0.00 0.00 0.00 27 1011.9
20260504024534 63 298 0.9 1.7 0.00 0.00 0.00 27 1012.0
20260504023031 62 0 0.0 0.9 0.00 0.00 0.00 29 1011.8
20260504021532 62 0 0.0 0.0 0.00 0.00 0.00 28 1011.8
20260504020032 64 0 0.0 0.0 0.00 0.00 0.00 25 1011.6
20260504014538 66 0 0.0 1.7 0.00 0.00 0.00 23 1011.4
20260504013037 67 174 0.0 4.3 0.00 0.00 0.00 23 1011.3
20260504011529 67 220 0.9 6.1 0.00 0.00 0.00 23 1011.3
20260504010030 68 243 0.9 5.2 0.00 0.00 0.00 24 1011.5
20260504004539 68 233 1.7 8.7 0.00 0.00 0.00 24 1011.6
20260504003030 67 60 0.0 5.2 0.00 0.00 0.00 24 1012.0
20260504001541 67 163 0.9 3.5 0.00 0.00 0.00 24 1012.2
20260504000032 68 0 0.0 0.9 0.00 0.00 0.00 28 1012.2
20260503234530 68 340 0.0 3.5 0.00 0.00 0.00 24 1012.5
20260503233033 68 326 0.0 1.7 0.00 0.00 0.00 25 1012.5
20260503231528 68 12 2.6 6.1 0.00 0.00 0.00 29 1012.1
20260503230032 69 0 0.0 7.8 0.00 0.00 0.00 25 1012.2
20260503224531 67 0 2.6 15.6 0.00 0.00 0.00 26 1012.8
20260503223031 70 56 0.9 6.1 0.00 0.00 0.00 22 1012.2
20260503221530 71 6 0.9 4.3 0.00 0.00 0.00 21 1012.2
20260503220040 71 45 1.7 5.2 0.00 0.00 0.00 20 1012.2
20260503214530 72 227 0.9 6.1 0.00 0.00 0.00 19 1012.4
20260503213029 73 0 0.0 5.2 0.00 0.00 0.00 20 1012.4
20260503211530 73 240 1.7 6.1 0.00 0.00 0.00 18 1012.6